Regional Weather Roundup
Issued by NWS

Home | Current Version | Previous Version | Text Only | Print | Product List | Glossary Off
Versions: 1 2 3 4 5 6 7 8 9 10 11 12 13 14 15 16 17 18 19 20 21 22 23 24 25 26 27 28 29 30 31 32 33 34 35 36 37 38 39 40 41 42 43 44 45 46 47 48 49 50

000
ASUS45 KBOI 210610
RWRID
WEATHER ROUNDUP FOR IDAHO
NATIONAL WEATHER SERVICE BOISE ID
1200 AM MDT TUE OCT 21 2014

NOTE: "FAIR" INDICATES FEW OR NO CLOUDS BELOW 12000 FEET
WITH NO SIGNIFICANT WEATHER AND/OR OBSTRUCTIONS TO VISIBILITY

IDZ012-014-210700-
SOUTHWEST IDAHO


CITY           SKY/WX    TMP DP  RH WIND       PRES   REMARKS
BOISE          CLOUDY    62  39  42 N13G20    29.76R
CALDWELL       CLOUDY    59  37  44 NW16      29.78R
MOUNTAIN HOME  MOCLDY    60  40  47 NE6       29.69R
$$

IDZ016-017-210700-
SOUTHCENTRAL IDAHO


CITY           SKY/WX    TMP DP  RH WIND       PRES   REMARKS
BURLEY         CLOUDY    66  35  31 S13       29.77F
JEROME         CLOUDY    65  35  33 SE10      29.76F
TWIN FALLS     CLOUDY    66  34  30 S10       29.76F
$$

IDZ019>023-210700-
SOUTHEAST IDAHO


CITY           SKY/WX    TMP DP  RH WIND       PRES   REMARKS
IDAHO FALLS    CLEAR     44  35  70 NW5       29.87F
POCATELLO      PTCLDY    58  36  43 W5        29.83F
REXBURG        CLEAR     47  34  60 NW5       29.88F
$$

IDZ006-010-011-018-031-032-210700-
CENTRAL IDAHO MOUNTAINS


CITY           SKY/WX    TMP DP  RH WIND       PRES   REMARKS
MCCALL         MOCLDY    45  34  65 CALM      29.76F
HAILEY         MOCLDY    59  36  41 S7        29.87S
STANLEY          N/A     48  39  71 S7        29.88F
SALMON         MOCLDY    55  36  47 S6        29.75F
CHALLIS        MOCLDY    51  43  74 VRB3      29.83F
$$

IDZ002-004-006-007-026-210700-
NORTHERN IDAHO


CITY           SKY/WX    TMP DP  RH WIND       PRES   REMARKS
LEWISTON       CLOUDY    57  44  62 NW9       29.86R HAZE
LOWELL           N/A     52  49  89 CALM      29.81R
COEUR D`ALENE  CLOUDY    55  43  62 W18G28    29.81R
MULLAN PASS    MOCLDY    41  39  93 NW8       29.84R
$$



USA.gov is the U.S. government's official web portal to all federal, state and local government web resources and services.